Aeroporto :
LOGIN :

Iscrizione | Disclaimer

   EN    FR    IT 

 










Sommario :    VFR   VFR Marginale   IFR   IFR Intensivo   IFR Molto Intensivo
Visibilità : 
Base nubi : 
>= 8 km
>= 3000ft
5 / 8 km
1000 / 3000 ft
1500m / 5 km
500 / 1000 ft
800 / 1500m
200 / 500 ft
< 800m
< 200 ft
Simboli :   Temporali  Nebbia  Neve Forte  Precipitazioni Forti  Vento > 20 kt
SIGMETs :   Varie  Temporali  Ghiacco  Turbolenza  Onda orograficha  Ceneri Vulcaniche






- Altitudine del aeroporto : 410 ft
- Codice IATA : AVB


LIPA - Aviano AB Pordenone

ULTIMO METAR :
  • 231455Z 12003KT 9999 SCT020 FEW025TCU BKN110 20/18 Q1009 RMK BKN VIS MIN 9999 WIND THR05 /////KT WIND THR23 /////KT A2980 BLU

METARs OBSOLETI :
  • 231355Z 16002KT 9999 DZ FEW020 FEW030TCU BKN060 20/19 Q1009 RMK BKN VIS MIN 9999 WIND THR05 /////KT WIND THR23 /////KT A2981 BLU
  • 231255Z 33001KT 9999 FEW015 FEW020TCU BKN040 20/18 Q1009 RMK OVC VIS MIN 9999 WIND THR05 /////KT WIND THR23 /////KT A2982 BLU

TAF TAF LIPA
Valido dal 23 a 15 ore il 24 a 00 ore UTC


231400Z 2315/2324 19003KT 7000 RA FEW015 BKN050
PROB40
TEMPO 2315/2321 4000 SHRA FEW010CB BKN030



MetMap, La meteo Aeronautica in un colpo d'occhio ! - Copyright ORBIFLY Dicembre 2007 - Disclaimer

ORBIFLY MET'MAP TEAM :

Programmazione e sviluppo : Alexandra Zaïnal
Concezione : Baudouin d'Aumeries
Aiuto per la programmazione : Marc-Olivier Méhu
Supporto tecnico e logistico : Manuel Goepfert
Aiuto per la traduzione : Arnaldo La Scala

Contatto : metmap@orbifly.com




FONTI E CREDITI :

   NOAA